Home > Weather > Tallahassee > Past weeks

Flag for USA Past Weather in Tallahassee, Florida, USA — Yesterday and Last 2 Weeks

Now
82 °F

Partly sunny.


Feels Like: 91 °F
Forecast: 74 / 90 °F
Wind: 6 mph from Southwest

Location: Tallahassee Regional Airport

Current Time: Jun 29, 2016 at 7:50:53 PM

Latest Report: Jun 29, 2016 at 6:53 PM


Visibility: 10 mi

Pressure: 29.93 "Hg

Humidity: 88%

Dew Point: 78 °F

Location of TallahasseeLocation

Past Weather in Tallahassee — Graph

°F

Tallahassee Temperature Yesterday

Maximum temperature yesterday: 95 °F (at 1:53 PM)
Minimum temperature yesterday: 76 °F (at 4:53 AM)
Average temperature yesterday: 83 °F

High & Low Weather Summary for the Past Weeks

 TemperatureHumidityPressure
High99 °F (Jun 25, 3:53 PM)94% (Jun 15, 6:53 AM)30.27 "Hg (Jun 15, 6:53 AM)
Low68 °F (Jun 22, 3:53 AM)28% (Jun 24, 4:53 PM)29.82 "Hg (Jun 17, 6:53 PM)
Average82 °F68%30.05 "Hg
* Reported Jun 14 5:53 PM — Jun 29 5:53 PM, Tallahassee, Weather by CustomWeather, © 2016

Note: Actual official high and low records may vary slightly from our data, if they occured in-between our weather recording intervals... More about our weather records

Advertising

Tallahassee Weather History for the Previous 24 Hours

Scroll right to see more
 ConditionsComfort  
Time TempWeatherWind HumidityBarometerVisibility
5:53 PM
Wed, Jun 29
79 °FPartly sunny.3 mph88%29.95 "Hg10 mi
4:53 PM77 °FBroken clouds.6 mph90%29.95 "Hg10 mi
3:53 PM77 °FThunderstorms. Partly sunny.10 mph88%29.97 "Hg5 mi
2:53 PM86 °FThunderstorms. Partly sunny.8 mph63%29.96 "Hg10 mi
2:01 PM91 °FThunderstorms. Partly sunny.5 mph52%29.94 "Hg10 mi
1:53 PM92 °FThunderstorms. Partly sunny.7 mph47%29.94 "Hg10 mi
12:53 PM89 °FPartly sunny.16 mph59%29.96 "Hg10 mi
11:53 AM90 °FPartly sunny.7 mph54%29.97 "Hg10 mi
10:53 AM89 °FBroken clouds.9 mph59%29.98 "Hg10 mi
9:53 AM86 °FPartly sunny.7 mph65%29.98 "Hg10 mi
8:53 AM82 °FPartly sunny.3 mph79%29.97 "Hg10 mi
7:53 AM77 °FSunny.No wind90%29.95 "Hg10 mi
6:53 AM75 °FLight fog.No wind94%29.95 "Hg10 mi
5:53 AM76 °FLight fog.3 mph91%29.94 "Hg10 mi
4:53 AM77 °FClear.No wind90%29.93 "Hg10 mi
3:53 AM77 °FClear.5 mph90%29.92 "Hg10 mi
2:53 AM78 °FClear.3 mph87%29.93 "Hg10 mi
1:53 AM79 °FOvercast.No wind82%29.95 "Hg10 mi
12:53 AM79 °FClear.No wind82%29.96 "Hg10 mi
11:53 PM
Tue, Jun 28
79 °FPassing clouds.No wind82%29.97 "Hg10 mi
10:53 PM80 °FPassing clouds.No wind79%29.96 "Hg10 mi
9:53 PM81 °FMostly cloudy.3 mph77%29.95 "Hg10 mi
8:53 PM81 °FMore clouds than sun.3 mph79%29.95 "Hg10 mi
7:53 PM82 °FBroken clouds.3 mph79%29.92 "Hg10 mi
Weather by CustomWeather, © 2016

See weather overviewHow to use our weather pages